TimeCST,TemperatureF,Dew PointF,Humidity,Sea Level PressureIn,VisibilityMPH,Wind Direction,Wind SpeedMPH,Gust SpeedMPH,PrecipitationIn,Events,Conditions,WindDirDegrees,DateUTC
12:15 AM,33.4,25.3,72,29.69,10.0,West,4.6,-,N/A,,Clear,270,2014-02-19 06:15:00
12:35 AM,32.5,24.8,73,29.70,10.0,West,3.5,-,N/A,,Clear,270,2014-02-19 06:35:00
12:55 AM,31.1,24.8,77,29.70,10.0,Calm,Calm,-,N/A,,Clear,0,2014-02-19 06:55:00
1:15 AM,30.4,25.0,80,29.70,10.0,Calm,Calm,-,N/A,,Clear,0,2014-02-19 07:15:00
1:35 AM,29.8,24.6,81,29.71,10.0,WSW,3.5,-,N/A,,Clear,250,2014-02-19 07:35:00
1:55 AM,27.7,23.2,83,29.71,10.0,Calm,Calm,-,N/A,,Clear,0,2014-02-19 07:55:00
2:15 AM,28.0,24.1,85,29.72,10.0,WSW,3.5,-,N/A,,Clear,250,2014-02-19 08:15:00
2:35 AM,29.3,24.3,81,29.73,10.0,WSW,3.5,-,N/A,,Clear,250,2014-02-19 08:35:00
3:35 AM,28.8,23.0,79,29.75,10.0,WSW,4.6,-,N/A,,Clear,240,2014-02-19 09:35:00
3:55 AM,26.8,22.1,83,29.75,10.0,Calm,Calm,-,N/A,,Clear,0,2014-02-19 09:55:00
4:15 AM,24.6,21.0,86,29.75,10.0,Calm,Calm,-,N/A,,Clear,0,2014-02-19 10:15:00
4:35 AM,22.5,19.8,89,29.76,10.0,Calm,Calm,-,N/A,,Clear,0,2014-02-19 10:35:00
4:55 AM,16.2,15.6,98,29.76,10.0,SSW,3.5,-,N/A,,Clear,200,2014-02-19 10:55:00
5:15 AM,19.0,18.0,96,29.77,10.0,Calm,Calm,-,N/A,,Clear,0,2014-02-19 11:15:00
5:35 AM,15.4,15.1,98,29.78,7.0,Calm,Calm,-,N/A,,Clear,0,2014-02-19 11:35:00
5:55 AM,18.3,18.3,100,29.78,7.0,SSW,4.6,-,N/A,,Clear,200,2014-02-19 11:55:00
6:15 AM,22.1,22.1,100,29.79,10.0,SSW,5.8,-,N/A,,Clear,200,2014-02-19 12:15:00
6:35 AM,22.1,22.1,100,29.79,7.0,SSW,5.8,-,N/A,,Clear,200,2014-02-19 12:35:00
6:55 AM,22.5,22.5,100,29.80,10.0,SSW,4.6,-,N/A,,Clear,210,2014-02-19 12:55:00
7:15 AM,22.1,22.1,100,29.81,10.0,SSW,5.8,-,N/A,,Clear,200,2014-02-19 13:15:00
7:35 AM,22.5,22.5,100,29.81,10.0,SSW,5.8,-,N/A,,Clear,210,2014-02-19 13:35:00
7:55 AM,23.7,23.5,99,29.81,10.0,SSW,6.9,-,N/A,,Clear,210,2014-02-19 13:55:00
8:35 AM,26.6,23.9,90,29.82,10.0,SSW,4.6,-,N/A,,Clear,210,2014-02-19 14:35:00
9:35 AM,31.8,21.7,66,29.84,10.0,SW,4.6,-,N/A,,Clear,220,2014-02-19 15:35:00
9:55 AM,32.9,21.6,63,29.85,10.0,SW,3.5,-,N/A,,Clear,220,2014-02-19 15:55:00
10:15 AM,33.8,21.2,60,29.84,10.0,WSW,5.8,-,N/A,,Clear,240,2014-02-19 16:15:00
10:35 AM,35.1,21.6,58,29.85,10.0,SW,5.8,-,N/A,,Clear,230,2014-02-19 16:35:00
10:55 AM,36.5,21.7,55,29.86,10.0,SW,5.8,-,N/A,,Clear,230,2014-02-19 16:55:00
11:15 AM,37.4,21.7,53,29.85,10.0,WSW,4.6,-,N/A,,Clear,250,2014-02-19 17:15:00
11:35 AM,37.6,22.5,54,29.85,10.0,SW,4.6,-,N/A,,Clear,230,2014-02-19 17:35:00
11:55 AM,39.2,22.6,52,29.85,10.0,WSW,5.8,-,N/A,,Clear,240,2014-02-19 17:55:00
12:15 PM,40.3,23.2,51,29.84,10.0,SW,8.1,-,N/A,,Clear,220,2014-02-19 18:15:00
12:35 PM,41.5,23.9,50,29.84,10.0,SW,6.9,-,N/A,,Clear,230,2014-02-19 18:35:00
12:55 PM,42.1,23.7,48,29.83,10.0,SW,8.1,-,N/A,,Clear,220,2014-02-19 18:55:00
1:15 PM,43.0,23.2,46,29.83,10.0,WSW,8.1,-,N/A,,Clear,240,2014-02-19 19:15:00
1:35 PM,43.7,22.6,43,29.83,10.0,SW,10.4,-,N/A,,Clear,220,2014-02-19 19:35:00
1:55 PM,45.0,21.7,40,29.82,10.0,WSW,5.8,-,N/A,,Clear,240,2014-02-19 19:55:00
2:15 PM,44.6,21.2,39,29.82,10.0,SW,9.2,-,N/A,,Clear,230,2014-02-19 20:15:00
2:35 PM,44.4,21.6,40,29.82,10.0,SW,5.8,-,N/A,,Clear,220,2014-02-19 20:35:00
2:55 PM,45.1,20.7,38,29.83,10.0,WSW,8.1,-,N/A,,Clear,240,2014-02-19 20:55:00
3:00 PM,44.6,21.2,39,29.83,10.0,SW,10.4,-,N/A,,Clear,230,2014-02-19 21:00:00
3:15 PM,44.8,21.7,40,29.83,10.0,SW,9.2,-,N/A,,Clear,230,2014-02-19 21:15:00
3:35 PM,44.6,22.1,41,29.83,10.0,SW,9.2,-,N/A,,Clear,230,2014-02-19 21:35:00
3:55 PM,45.5,22.6,41,29.83,10.0,WSW,9.2,-,N/A,,Clear,240,2014-02-19 21:55:00
4:15 PM,44.6,23.7,44,29.83,10.0,SW,5.8,-,N/A,,Clear,220,2014-02-19 22:15:00
4:35 PM,43.7,24.4,47,29.83,10.0,SW,4.6,-,N/A,,Clear,220,2014-02-19 22:35:00
4:55 PM,43.2,25.7,50,29.83,10.0,SSW,4.6,-,N/A,,Clear,210,2014-02-19 22:55:00
5:15 PM,43.2,27.3,54,29.83,10.0,SSW,4.6,-,N/A,,Clear,210,2014-02-19 23:15:00
5:35 PM,41.4,27.5,58,29.83,10.0,Calm,Calm,-,N/A,,Clear,0,2014-02-19 23:35:00
5:55 PM,39.7,27.5,62,29.83,10.0,South,3.5,-,N/A,,Clear,170,2014-02-19 23:55:00
6:35 PM,36.1,27.1,70,29.83,10.0,Calm,Calm,-,N/A,,Clear,0,2014-02-20 00:35:00
6:55 PM,33.3,27.3,79,29.83,10.0,Calm,Calm,-,N/A,,Clear,0,2014-02-20 00:55:00
7:15 PM,32.5,27.0,80,29.82,10.0,South,3.5,-,N/A,,Clear,180,2014-02-20 01:15:00
7:35 PM,32.5,27.1,80,29.82,10.0,South,4.6,-,N/A,,Clear,180,2014-02-20 01:35:00
8:15 PM,32.9,27.1,79,29.81,10.0,Calm,Calm,-,N/A,,Clear,0,2014-02-20 02:15:00
8:35 PM,33.8,27.0,76,29.81,10.0,Calm,Calm,-,N/A,,Clear,0,2014-02-20 02:35:00
8:55 PM,32.4,26.2,78,29.81,10.0,Calm,Calm,-,N/A,,Clear,0,2014-02-20 02:55:00
9:35 PM,31.1,28.2,89,29.82,10.0,South,3.5,-,N/A,,Clear,180,2014-02-20 03:35:00
9:55 PM,32.2,26.4,79,29.82,10.0,Calm,Calm,-,N/A,,Clear,0,2014-02-20 03:55:00
10:10 PM,33.1,25.5,74,29.81,10.0,SSE,3.5,-,N/A,,Clear,150,2014-02-20 04:10:00
10:35 PM,33.8,24.8,70,29.82,10.0,SE,3.5,-,N/A,,Scattered Clouds,140,2014-02-20 04:35:00
10:55 PM,34.0,24.3,68,29.81,10.0,SSE,4.6,-,N/A,,Scattered Clouds,160,2014-02-20 04:55:00
11:35 PM,33.6,23.0,65,29.81,10.0,South,3.5,-,N/A,,Clear,170,2014-02-20 05:35:00